Date String (YYYY-MM-DD hh:mm:ss) UTC,Instrument flags,absolute air pressure of the measurement (hPa),sample flow rate (lpm),inlet stack bypass flow (lpm),air temperature of the measurement (°C),ambient temperature measured by the external sensor (°C),aerosol sample conditioner tube jacket temperature (°C),OPC LED temperature (°C),internal box temperature (°C),relative humidity of the measurement (%),span deviation,mass concentration of particles derived from Lorenz-Mie calculation of OPC scattering (μg/m³),mass concentration of particles derived from Lorenz-Mie calculation of OPC scattering (μg/m³),mass concentration of particles derived from Lorenz-Mie calculation of OPC scattering (μg/m³)
DateTimeUTC,F1_M11,P_M11,Q1_M11,Q2_M11,T1_M11,T2_M11,T3_M11,T4_M11,T5_M11,U1_M11,ZSPAN_M11,X2_M11,X0_M11,X1_M11
2024-02-11 05:00:00,SystemResetWarning,0828.8,5.00,000.00,018.2,017.7,000.0,026.8,020.0,17.6,0000.0,0005.40,0006.36,0005.30
2024-02-11 05:01:00,SystemResetWarning,0828.8,5.00,000.00,018.2,017.7,000.0,026.8,020.0,17.6,0000.0,0005.36,0006.22,0005.26
2024-02-11 05:02:00,SystemResetWarning,0828.8,5.00,000.00,018.2,017.7,000.0,026.8,020.0,17.6,0000.0,0005.31,0006.14,0005.21
2024-02-11 05:03:00,SystemResetWarning,0828.8,5.00,000.00,018.2,017.7,000.0,026.8,020.0,17.6,0000.0,0005.25,0006.04,0005.16
2024-02-11 05:04:00,SystemResetWarning,0828.8,5.00,000.00,018.2,017.7,000.0,026.8,020.0,17.6,0000.0,0005.19,0005.93,0005.11
2024-02-11 05:05:00,SystemResetWarning,0828.8,5.00,000.00,018.2,017.7,000.0,026.8,020.0,17.6,0000.0,0005.13,0005.84,0005.05
2024-02-11 05:06:00,SystemResetWarning,0828.8,5.00,000.00,018.2,017.7,000.0,026.8,020.0,17.6,0000.0,0005.08,0005.74,0005.01
2024-02-11 05:07:00,SystemResetWarning,0828.8,5.00,000.00,018.2,017.7,000.0,026.8,020.0,17.5,0000.0,0005.03,0005.61,0004.97
2024-02-11 05:08:00,SystemResetWarning,0828.8,5.00,000.00,018.2,017.7,000.0,026.8,020.0,17.5,0000.0,0004.97,0005.53,0004.92
2024-02-11 05:09:00,SystemResetWarning,0828.8,5.00,000.00,018.2,017.7,000.0,026.8,020.0,17.5,0000.0,0004.94,0005.51,0004.89
2024-02-11 05:10:00,SystemResetWarning,0828.8,5.00,000.00,018.2,017.6,000.0,026.8,020.0,17.5,0000.0,0004.90,0005.44,0004.85
2024-02-11 05:11:00,SystemResetWarning,0828.8,4.99,000.00,018.2,017.6,000.0,026.8,020.0,17.5,0000.0,0004.82,0005.31,0004.78
2024-02-11 05:12:00,SystemResetWarning,0828.8,4.99,000.00,018.2,017.6,000.0,026.8,020.0,17.5,0000.0,0004.78,0005.29,0004.73
2024-02-11 05:13:00,SystemResetWarning,0828.8,5.00,000.00,018.2,017.6,000.0,026.8,020.0,17.5,0000.0,0004.74,0005.31,0004.69
2024-02-11 05:14:00,SystemResetWarning,0828.8,5.01,000.00,018.2,017.7,000.0,026.9,020.1,17.5,0000.0,0004.74,0005.34,0004.67
2024-02-11 05:15:00,SystemResetWarning,0828.8,5.02,000.00,018.3,018.2,000.0,027.0,020.4,17.5,0000.0,0004.71,0005.30,0004.65
2024-02-11 05:16:00,SystemResetWarning,0828.9,4.99,000.00,018.6,019.0,000.0,027.0,020.9,17.2,0000.0,0004.70,0005.26,0004.65
2024-02-11 05:17:00,SystemResetWarning,0828.8,4.99,000.00,018.7,019.2,000.0,027.0,021.0,17.1,0000.0,0004.66,0005.20,0004.62
2024-02-11 05:18:00,SystemResetWarning,0828.8,5.02,000.00,018.7,019.0,000.0,027.0,020.8,17.0,0000.0,0004.63,0005.13,0004.59
2024-02-11 05:19:00,SystemResetWarning,0828.7,5.01,000.00,018.7,018.8,000.0,027.0,020.6,17.0,0000.0,0004.62,0005.10,0004.58
2024-02-11 05:20:00,SystemResetWarning,0828.8,5.00,000.00,018.7,018.7,000.0,026.9,020.5,17.0,0000.0,0004.59,0005.06,0004.55
2024-02-11 05:21:00,SystemResetWarning,0828.8,5.00,000.00,018.7,018.5,000.0,026.9,020.4,17.0,0000.0,0004.58,0005.07,0004.54
2024-02-11 05:22:00,SystemResetWarning,0828.8,5.00,000.00,018.7,018.4,000.0,026.9,020.4,17.0,0000.0,0004.58,0005.06,0004.53
2024-02-11 05:23:00,SystemResetWarning,0828.7,5.00,000.00,018.6,018.3,000.0,026.9,020.3,17.1,0000.0,0004.57,0005.05,0004.53
2024-02-11 05:24:00,SystemResetWarning,0828.7,4.99,000.00,018.6,018.3,000.0,026.9,020.3,17.1,0000.0,0004.57,0004.98,0004.53
2024-02-11 05:25:00,SystemResetWarning,0828.7,5.00,000.00,018.6,018.2,000.0,026.9,020.3,17.1,0000.0,0004.54,0004.93,0004.51
2024-02-11 05:26:00,SystemResetWarning,0828.7,5.01,000.00,018.6,018.1,000.0,026.9,020.2,17.1,0000.0,0004.52,0004.91,0004.49
2024-02-11 05:27:00,SystemResetWarning,0828.8,5.00,000.00,018.5,018.1,000.0,026.9,020.2,17.1,0000.0,0004.50,0004.86,0004.46
2024-02-11 05:28:00,SystemResetWarning,0828.7,5.00,000.00,018.5,018.0,000.0,026.9,020.2,17.1,0000.0,0004.48,0004.84,0004.45
2024-02-11 05:29:00,SystemResetWarning,0828.8,5.00,000.00,018.5,018.0,000.0,026.9,020.2,17.1,0000.0,0004.46,0004.80,0004.43
2024-02-11 05:30:00,SystemResetWarning,0828.7,5.00,000.00,018.5,018.0,000.0,026.9,020.2,17.2,0000.0,0004.45,0004.76,0004.41
2024-02-11 05:31:00,SystemResetWarning,0828.7,4.99,000.00,018.5,017.9,000.0,026.9,020.2,17.2,0000.0,0004.44,0004.74,0004.41
2024-02-11 05:32:00,SystemResetWarning,0828.7,5.00,000.00,018.5,017.9,000.0,026.9,020.1,17.2,0000.0,0004.44,0004.73,0004.41
2024-02-11 05:33:00,SystemResetWarning,0828.7,5.00,000.00,018.4,017.9,000.0,026.9,020.1,17.2,0000.0,0004.43,0004.74,0004.40
2024-02-11 05:34:00,SystemResetWarning,0828.8,5.00,000.00,018.4,017.9,000.0,026.9,020.1,17.2,0000.0,0004.41,0004.71,0004.38
2024-02-11 05:35:00,SystemResetWarning,0828.8,5.00,000.00,018.4,017.8,000.0,026.9,020.1,17.2,0000.0,0004.39,0004.68,0004.37
2024-02-11 05:36:00,SystemResetWarning,0828.8,5.00,000.00,018.4,017.8,000.0,026.9,020.1,17.2,0000.0,0004.39,0004.69,0004.37
2024-02-11 05:37:00,SystemResetWarning,0828.8,5.01,000.00,018.4,017.8,000.0,026.9,020.1,17.2,0000.0,0004.39,0004.70,0004.36
2024-02-11 05:38:00,SystemResetWarning,0828.8,5.00,000.00,018.4,017.8,000.0,026.9,020.1,17.2,0000.0,0004.38,0004.75,0004.35
2024-02-11 05:39:00,SystemResetWarning,0828.8,4.99,000.00,018.3,017.8,000.0,026.8,020.0,17.2,0000.0,0004.37,0004.79,0004.34
2024-02-11 05:40:00,SystemResetWarning,0828.8,4.99,000.00,018.3,017.8,000.0,026.8,020.0,17.2,0000.0,0004.38,0004.80,0004.34
2024-02-11 05:41:00,SystemResetWarning,0828.8,4.99,000.00,018.3,017.8,000.0,026.8,020.0,17.2,0000.0,0004.37,0004.80,0004.34
2024-02-11 05:42:00,SystemResetWarning,0828.8,4.99,000.00,018.3,017.7,000.0,026.8,020.0,17.3,0000.0,0004.37,0006.04,0004.33
2024-02-11 05:43:00,SystemResetWarning,0828.7,5.00,000.00,018.3,017.7,000.0,026.9,020.0,17.2,0000.0,0004.36,0006.11,0004.32
2024-02-11 05:44:00,SystemResetWarning,0828.8,5.00,000.00,018.3,017.7,000.0,026.9,020.0,17.2,0000.0,0004.37,0006.11,0004.34
2024-02-11 05:45:00,SystemResetWarning,0828.8,5.00,000.00,018.3,017.7,000.0,026.9,020.0,17.3,0000.0,0004.36,0006.10,0004.34
2024-02-11 05:46:00,SystemResetWarning,0828.8,5.01,000.00,018.3,017.7,000.0,026.9,020.0,17.3,0000.0,0004.37,0006.14,0004.34
2024-02-11 05:47:00,SystemResetWarning,0828.8,5.01,000.00,018.3,017.7,000.0,026.8,020.0,17.3,0000.0,0004.38,0006.15,0004.35
2024-02-11 05:48:00,SystemResetWarning,0828.7,5.00,000.00,018.3,017.6,000.0,026.9,020.0,17.3,0000.0,0004.39,0006.15,0004.35
2024-02-11 05:49:00,SystemResetWarning,0828.8,5.00,000.00,018.3,017.6,000.0,026.9,020.0,17.3,0000.0,0004.41,0006.17,0004.37
2024-02-11 05:50:00,SystemResetWarning,0828.7,4.99,000.00,018.3,017.6,000.0,026.8,020.0,17.3,0000.0,0004.42,0006.11,0004.38
2024-02-11 05:51:00,SystemResetWarning,0828.8,5.00,000.00,018.2,017.6,000.0,026.8,020.0,17.3,0000.0,0004.43,0006.45,0004.39
2024-02-11 05:52:00,SystemResetWarning,0828.7,5.00,000.00,018.2,017.6,000.0,026.8,020.0,17.3,0000.0,0004.44,0007.11,0004.40
2024-02-11 05:53:00,SystemResetWarning,0828.7,5.00,000.00,018.2,017.7,000.0,026.8,020.0,17.3,0000.0,0004.48,0007.51,0004.43
2024-02-11 05:54:00,SystemResetWarning,0828.7,5.00,000.00,018.3,018.0,000.0,026.9,020.2,17.3,0000.0,0004.49,0007.34,0004.45
2024-02-11 05:55:00,SystemResetWarning,0828.8,5.00,000.00,018.5,018.7,000.0,027.0,020.7,17.1,0000.0,0004.50,0007.34,0004.46
2024-02-11 05:56:00,SystemResetWarning,0828.7,5.00,000.00,018.6,018.9,000.0,027.0,020.7,17.0,0000.0,0004.53,0007.36,0004.48
2024-02-11 05:57:00,SystemResetWarning,0828.8,4.99,000.00,018.6,018.7,000.0,026.9,020.6,16.9,0000.0,0004.56,0007.38,0004.51
2024-02-11 05:58:00,SystemResetWarning,0828.8,5.00,000.00,018.6,018.6,000.0,026.9,020.5,17.0,0000.0,0004.58,0007.39,0004.53
2024-02-11 05:59:00,SystemResetWarning,0828.8,5.02,000.00,018.6,018.5,000.0,026.9,020.3,17.0,0000.0,0004.61,0007.43,0004.56
